Tracking 20040 objects as of 18-Nov-2019
Live streaming from Space Station
objects crossing your sky now

THORAD AGENA D DEB

Track THORAD AGENA D DEB now!
10-day predictions


NORAD ID: 4171
Int'l Code: 1969-082AP
Perigee: 764.7 km
Apogee: 823.8 km
Inclination: 70.1 °
Period: 100.6 minutes
Semi major axis: 7165 km
RCS: 0.0461 m2 (small)
Launch date: September 30, 1969
Source: United States (US)
Launch site: AIR FORCE WESTERN TEST RANGE (AFWTR)

Note: This is SATELLITE DEBRIS
aabbcc
Your satellite tracking list
Your tracking list is empty




NASA's NSSDC Master Catalog

Two Line Element Set (TLE):
1  4171U 69082AP  19321.90099056 +.00000102 +00000-0 +59571-4 0  9996
2  4171 070.0786 219.4944 0041216 241.2474 118.4508 14.31389496594771
Source of the keplerian elements: AFSPC